Location: Caltech
(34.1382°N, 118.1253°W)
Time: 07:05:28
(UTC-08:00)

Cosmos 1408 Rocket - Visible Passes

Search period start: 21 December 2014 00:00
Search period end: 31 December 2014 00:00
Orbit: 602 x 633 km, 82.6° (Epoch: 21 December)

Date Brightness Start Highest point End Pass type
(mag) Time Alt. Az. Time Alt. Az. Time Alt. Az.
21 Dec 6.5 04:22:36 10° NE 04:24:43 13° ENE 04:26:50 10° ESE visible
21 Dec 4.0 05:58:41 10° NNW 06:02:42 38° W 06:06:40 10° SSW visible
21 Dec 4.4 18:25:21 10° SSW 18:29:40 52° W 18:33:59 10° N visible
22 Dec 5.6 04:38:11 10° NNE 04:41:46 25° ENE 04:45:20 10° SE visible
22 Dec 4.9 06:16:16 10° NW 06:19:23 20° W 06:22:28 10° SW visible
22 Dec 5.6 18:42:52 10° SW 18:46:37 27° WNW 18:50:22 10° NNW visible
23 Dec 4.3 04:55:39 17° N 04:58:43 50° E 05:02:52 10° SSE visible
23 Dec 4.1 17:21:35 10° SSE 17:25:42 39° E 17:29:48 10° NNE visible
23 Dec 6.5 19:01:17 10° WSW 19:03:39 14° WNW 19:06:02 10° NW visible
24 Dec 3.3 05:13:27 29° NNW 05:15:34 79° W 05:19:51 10° S visible
24 Dec 3.5 17:38:03 10° S 17:42:29 79° E 17:46:54 10° N visible
25 Dec 6.4 03:54:06 13° ENE 03:54:22 13° ENE 03:56:29 10° ESE visible
25 Dec 4.0 05:31:18 33° WNW 05:32:20 38° W 05:36:18 10° SSW visible
25 Dec 4.5 17:55:02 10° SSW 17:59:20 51° W 18:03:38 10° N visible
26 Dec 5.6 04:11:58 25° E 04:11:58 25° E 04:14:59 10° SE visible
26 Dec 4.8 05:49:09 20° W 05:49:09 20° W 05:52:06 10° SW visible
26 Dec 5.7 18:12:33 10° SW 18:16:16 26° WNW 18:19:59 10° NNW visible
27 Dec 4.9 04:29:50 34° SE 04:29:50 34° SE 04:32:31 10° SSE visible
27 Dec 6.5 18:30:59 10° WSW 18:33:18 14° WNW 18:35:38 10° NW visible
28 Dec 5.1 04:47:41 25° S 04:47:41 25° S 04:49:29 10° S visible
29 Dec 5.8 05:05:31 12° SSW 05:05:31 12° SSW 05:05:55 10° SSW visible
29 Dec 4.5 17:24:41 10° SSW 17:28:58 51° W 17:33:15 10° N visible
30 Dec 5.8 17:42:12 10° SW 17:45:54 26° WNW 17:49:35 10° NNW visible
